Weather History for CYWG - January, 2013

Change the Weather History Date:

Thursday, January 24, 2013

  Actual Average Record
Temperature  
Mean Temperature -15 °F -  
Max Temperature 0 °F 8 °F 32 °F (2015)
Min Temperature -30 °F -4 °F -32 °F (2004)
Degree Days  
Heating Degree Days 80    
Moisture  
Dew Point -17 °F    
Average Humidity 71    
Maximum Humidity 85    
Minimum Humidity 41    
Precipitation  
Precipitation 0.08 in - - ()
Sea Level Pressure  
Sea Level Pressure 30.42 in    
Wind  
Wind Speed 11 mph ()    
Max Wind Speed 24 mph    
Max Gust Speed 25 mph    
Visibility 6.7 miles    
Events Snow    
Averages and records for this station are not official NWS values.
T = Trace of Precipitation, MM = Missing Value Source: Averaged Metar Reports

Daily Weather History Graph

Daily Weather History Graph

Search for Another Location

Airport or City:

Trip Planner

Search our weather history database for the weather conditions in past years. The results will help you decide how hot, cold, wet, or windy it might be!

Date:

Astronomy

Jan. 24, 2013 Rise Set
Actual Time 8:12 AM CST 5:10 PM CST
Civil Twilight 7:36 AM CST 5:46 PM CST
Nautical Twilight 6:56 AM CST 6:25 PM CST
Astronomical Twilight 6:18 AM CST 7:04 PM CST
Moon 3:10 PM CST (1/24) 6:14 AM CST (1/24)
Length of Visible Light 10h 10m
Length of Day
8h 58m
Waxing Gibbous, 94% of the Moon is Illuminated
Jan 24
Waxing Gibbous
Jan 26
Full
Feb 3
Last Quarter
Feb 10
New
Feb 17
First Quarter

Hourly Weather History & Observations

Time (CST) Temp. Windchill Dew Point Humidity Pressure Visibility Wind Dir Wind Speed Gust Speed Precip Events Conditions
12:00 AM -27 °F - -34 °F 52% 30.79 in 9 mi Calm Calm - -  
12:00 AM -25.6 °F -37.1 °F -31.0 °F 76% 30.78 in 15.0 mi ENE 3.5 mph - N/A   Clear
1:00 AM -25.6 °F -39.8 °F -31.0 °F 76% 30.78 in 15.0 mi ENE 4.6 mph - N/A   Clear
2:00 AM -22.0 °F - -27.4 °F 76% 30.77 in 15.0 mi Calm Calm - N/A   Clear
3:00 AM -22.0 °F -39.4 °F -27.4 °F 76% 30.75 in 15.0 mi SSE 6.9 mph - N/A   Mostly Cloudy
4:00 AM -20.2 °F -38.8 °F -27.4 °F 69% 30.74 in 15.0 mi South 8.1 mph - N/A   Mostly Cloudy
5:00 AM -20.2 °F -37.3 °F -27.4 °F 69% 30.73 in 15.0 mi South 6.9 mph - N/A   Overcast
6:00 AM -19 °F - -29 °F 44% 30.70 in 9 mi Calm Calm - -  
6:00 AM -18.4 °F -36.6 °F -27.4 °F 63% 30.70 in 15.0 mi South 8.1 mph - N/A   Overcast
7:00 AM -18.4 °F -40.2 °F -27.4 °F 63% 30.68 in 15.0 mi SSE 11.5 mph - N/A   Overcast
8:00 AM -18.4 °F -39.1 °F -27.4 °F 63% 30.65 in 15.0 mi South 10.4 mph - N/A   Overcast
9:00 AM -16.6 °F -38.9 °F -23.8 °F 70% 30.59 in 15.0 mi SE 12.7 mph - N/A   Overcast
10:00 AM -14.8 °F -39.1 °F -22.0 °F 70% 30.57 in 15.0 mi SSE 16.1 mph - N/A   Overcast
11:00 AM -13.0 °F -35.2 °F -22.0 °F 64% 30.56 in 15.0 mi SSE 13.8 mph - N/A   Overcast
12:00 PM -10 °F - -21 °F 41% 30.52 in 9 mi Calm Calm - -  
12:00 PM -11.2 °F -35.2 °F -20.2 °F 64% 30.52 in 15.0 mi SSE 17.3 mph - N/A   Overcast
12:05 PM -9.4 °F -31.4 °F -18.4 °F 65% 30.52 in 4.0 mi SSE 15.0 mph 21.9 mph N/A Snow Light Snow Showers
12:15 PM -9.4 °F -32.8 °F -18.4 °F 65% 30.50 in 0.8 mi SSE 17.3 mph 24.2 mph N/A Snow Light Snow Showers
12:37 PM -9.4 °F -32.8 °F -16.6 °F 71% 30.48 in 0.6 mi SSE 17.3 mph - N/A Snow Light Snow Showers
1:00 PM -9.4 °F -33.5 °F -14.8 °F 77% 30.44 in 0.8 mi SE 18.4 mph - N/A Snow Light Snow Showers
1:05 PM -9.4 °F -34.1 °F -14.8 °F 77% 30.43 in 1.0 mi SE 19.6 mph - N/A Snow Light Snow Showers
1:18 PM -9.4 °F -32.8 °F -14.8 °F 77% 30.41 in 1.0 mi SE 17.3 mph 24.2 mph N/A Snow Light Snow Showers
1:25 PM -9.4 °F -34.7 °F -14.8 °F 77% 30.40 in 0.8 mi SE 20.7 mph - N/A Snow Light Snow Showers
1:32 PM -9.4 °F -34.1 °F -14.8 °F 77% 30.40 in 4.0 mi SE 19.6 mph 25.3 mph N/A Snow Light Snow Showers
1:51 PM -7.6 °F -31.1 °F -14.8 °F 71% 30.39 in 1.0 mi SSE 18.4 mph - N/A Snow Light Snow Showers
2:00 PM -7.6 °F -31.1 °F -14.8 °F 71% 30.38 in 2.0 mi SE 18.4 mph - N/A Snow Light Snow Showers
2:23 PM -7.6 °F -31.7 °F -14.8 °F 71% 30.36 in 10.0 mi SSE 19.6 mph - N/A Snow Light Snow Showers
3:00 PM -7.6 °F -33.4 °F -13.0 °F 77% 30.31 in 15.0 mi SE 23.0 mph - N/A Snow Low Drifting Snow
3:49 PM -5.8 °F -31.5 °F -14.8 °F 65% 30.27 in 8.0 mi SE 24.2 mph - N/A Snow Light Snow Showers
3:55 PM -5.8 °F -30.5 °F -14.8 °F 65% 30.26 in 2.0 mi SE 21.9 mph - N/A Snow Light Snow Showers
4:00 PM -5.8 °F -31.5 °F -14.8 °F 65% 30.26 in 0.8 mi SE 24.2 mph - N/A Snow Light Snow Showers
4:43 PM -5.8 °F -29.4 °F -11.2 °F 77% 30.25 in 0.5 mi SE 19.6 mph 25.3 mph N/A Snow Light Snow Showers
5:00 PM -5.8 °F -29.9 °F -11.2 °F 77% 30.23 in 0.5 mi SE 20.7 mph - N/A Snow Snow Showers
5:38 PM -5.8 °F -28.2 °F -9.4 °F 84% 30.22 in 0.8 mi SSE 17.3 mph 23.0 mph N/A Snow Light Snow Showers
6:00 PM -4 °F - -11 °F 60% 30.21 in 1 mi Calm Calm - -   Unknown Precipitation
6:00 PM -4.0 °F -24.5 °F -9.4 °F 78% 30.21 in 1.5 mi SSE 15.0 mph - N/A Snow Light Snow Showers
7:00 PM -4.0 °F -25.2 °F -9.4 °F 78% 30.18 in 2.5 mi SSE 16.1 mph - N/A Snow Light Snow Showers
7:35 PM -2.2 °F -23.5 °F -7.6 °F 78% 30.16 in 1.0 mi SSE 17.3 mph - N/A Snow Light Snow Showers
8:00 PM -2.2 °F -24.1 °F -7.6 °F 78% 30.13 in 1.5 mi SSE 18.4 mph - N/A Snow Light Snow Showers
9:00 PM -0.4 °F -20.5 °F -5.8 °F 78% 30.09 in 1.5 mi SSE 16.1 mph - N/A Snow Light Snow Showers
9:49 PM -0.4 °F -19.9 °F -5.8 °F 78% 30.07 in 1.0 mi SE 15.0 mph - N/A Snow Light Snow
10:00 PM -0.4 °F -19.9 °F -5.8 °F 78% 30.07 in 1.5 mi SE 15.0 mph - N/A Snow Light Snow
10:49 PM -0.4 °F -19.9 °F -5.8 °F 78% 30.04 in 3.0 mi SE 15.0 mph - N/A Snow Light Snow
11:00 PM -0.4 °F -19.2 °F -4.0 °F 85% 30.04 in 3.0 mi SE 13.8 mph - N/A Snow Light Snow